TimeEST,TemperatureF,Dew PointF,Humidity,Sea Level PressureIn,VisibilityMPH,Wind Direction,Wind SpeedMPH,Gust SpeedMPH,PrecipitationIn,Events,Conditions,WindDirDegrees,DateUTC
12:54 AM,34.0,25.0,70,29.88,10.0,West,13.8,19.6,N/A,,Overcast,260,2012-11-26 05:54:00
1:54 AM,35.1,25.0,67,29.89,9.0,WSW,12.7,-,0.00,Snow,Light Snow,250,2012-11-26 06:54:00
2:54 AM,34.0,25.0,70,29.92,10.0,West,16.1,-,0.00,,Scattered Clouds,260,2012-11-26 07:54:00
3:54 AM,35.1,25.0,67,29.94,10.0,West,11.5,20.7,N/A,,Overcast,270,2012-11-26 08:54:00
4:54 AM,34.0,25.0,70,29.97,10.0,West,13.8,-,N/A,,Mostly Cloudy,260,2012-11-26 09:54:00
5:54 AM,33.1,26.1,75,30.00,10.0,WSW,11.5,-,N/A,,Overcast,240,2012-11-26 10:54:00
6:54 AM,33.1,26.1,75,30.03,10.0,WSW,11.5,-,N/A,,Mostly Cloudy,250,2012-11-26 11:54:00
7:54 AM,33.1,26.1,75,30.05,10.0,WSW,9.2,-,N/A,,Mostly Cloudy,250,2012-11-26 12:54:00
8:54 AM,34.0,26.1,73,30.08,10.0,WSW,11.5,-,0.00,,Mostly Cloudy,240,2012-11-26 13:54:00
9:54 AM,37.0,27.0,67,30.10,10.0,West,10.4,18.4,N/A,,Mostly Cloudy,260,2012-11-26 14:54:00
10:54 AM,36.0,27.0,70,30.12,10.0,West,11.5,-,N/A,,Overcast,270,2012-11-26 15:54:00
11:54 AM,37.9,26.1,62,30.12,10.0,West,13.8,18.4,N/A,,Overcast,270,2012-11-26 16:54:00
12:54 PM,37.9,26.1,62,30.12,10.0,WSW,13.8,-,N/A,,Overcast,250,2012-11-26 17:54:00
1:54 PM,37.9,24.1,57,30.13,10.0,WSW,12.7,-,N/A,,Overcast,240,2012-11-26 18:54:00
2:54 PM,37.9,24.1,57,30.14,10.0,WSW,9.2,-,N/A,,Overcast,250,2012-11-26 19:54:00
3:54 PM,37.0,24.1,59,30.16,10.0,WSW,8.1,-,0.00,Snow,Light Snow,240,2012-11-26 20:54:00
4:54 PM,37.0,23.0,57,30.17,10.0,WSW,9.2,-,0.00,,Overcast,250,2012-11-26 21:54:00
5:54 PM,36.0,23.0,59,30.19,10.0,WSW,5.8,-,N/A,,Overcast,240,2012-11-26 22:54:00
6:54 PM,35.1,23.0,61,30.20,10.0,WSW,8.1,-,N/A,,Overcast,240,2012-11-26 23:54:00
7:54 PM,35.1,23.0,61,30.20,10.0,WSW,6.9,-,N/A,,Overcast,240,2012-11-27 00:54:00
8:54 PM,34.0,21.9,61,30.21,10.0,WSW,8.1,-,N/A,,Overcast,240,2012-11-27 01:54:00
9:54 PM,34.0,21.0,59,30.22,10.0,West,8.1,-,N/A,,Overcast,260,2012-11-27 02:54:00
10:54 PM,33.1,19.9,59,30.23,10.0,WSW,9.2,-,N/A,,Overcast,250,2012-11-27 03:54:00
11:54 PM,33.1,19.0,56,30.25,10.0,WSW,6.9,-,N/A,,Overcast,240,2012-11-27 04:54:00